[[{"header":{"parameterUnit":"m.s-1","parameterCategory":1,"la1":30.2991,"la2":30.254,"lo1":-89.0895,"lo2":-89.0444,"dy":0.0017,"dx":0.0017,"nx":28,"ny":28,"refTime":"2025-06-08T21:00:00:Z","depth":0,"parameterNumber":2,"parameterNumberName":"U-component_of_WINDS"},"data":[0,0,0,0,0,0,0,0,0,0,0,0,0,0,0,0,0,0,0,0,0,0,0,0,0,0,0,0,0,0,0,0,0,0,0,0,0,0,0,0,0,0,0,0,0,0,0,0,0,0,0,0,0,0,0,0,0,0,2.1936,2.1938,0,2.2074,2.2076,2.2077,2.2102,2.2101,2.21,2.2099,2.2247,2.2252,2.2257,0,0,0,0,0,0,0,0,0,0,0,0,0,2.1704,2.1708,2.1936,2.1938,2.194,2.2074,2.2076,2.2078,2.2103,2.2101,2.21,2.2098,2.2246,2.2252,2.2258,0,0,0,0,0,0,0,0,0,0,0,0,0,2.182,2.171,2.1936,2.1968,2.1972,2.2074,2.2076,2.2078,2.2103,2.2101,2.2099,2.2098,2.2244,2.2251,2.2258,2.234,0,0,2.2281,2.2285,0,0,0,0,0,0,0,0,2.1814,2.1829,2.1962,2.1966,2.1971,2.2069,2.2049,2.2166,2.2103,2.2053,2.2099,2.2097,2.219,2.2202,2.2232,2.2347,2.2353,2.2282,2.2287,2.229,2.2292,0,0,0,0,0,0,0,2.1806,2.1823,2.1991,2.1963,2.1969,2.1979,2.1994,2.2071,2.213,2.2058,2.206,2.2075,2.2192,2.2224,2.2235,2.2355,2.2282,2.2289,2.2293,2.2296,2.2552,2.2554,0,0,0,0,0,0,2.1791,2.1816,2.1987,2.1995,2.1886,2.1985,2.2001,2.2039,2.2129,2.2141,2.2077,2.2076,2.2212,2.2226,2.2241,2.2346,2.229,2.2297,2.2301,2.2549,2.2552,2.2555,0,0,0,0,0,0,2.1785,2.1805,2.1981,2.1906,2.1929,2.199,2.2034,2.2043,2.2075,2.2143,2.2155,2.2098,2.2211,2.223,2.2316,2.2352,2.23,2.2307,2.2547,2.255,2.2553,2.2555,0,0,0,0,0,0,2.1779,2.1803,2.1832,2.1907,2.1933,2.2051,2.2036,2.2047,2.2087,2.2088,2.2167,2.2178,2.2212,2.2305,2.2324,2.2361,2.2313,2.2544,2.2548,2.2552,2.2553,2.2559,2.2564,0,0,0,0,0,2.177,2.1827,2.1833,2.1854,2.197,2.2052,2.2068,2.2103,2.209,2.2122,2.2167,2.2176,2.2344,2.2313,2.2335,2.2375,2.2542,2.2547,2.2552,2.255,2.2557,2.2563,0,0,0,0,0,0,2.1756,2.1837,2.1845,2.1927,2.1983,2.2056,2.2097,2.2109,2.2171,2.2169,2.2213,2.2231,2.2316,2.2354,2.2318,2.2462,2.2443,2.2452,2.2434,2.2442,2.2447,2.2437,2.2319,0,0,0,0,0,2.1762,2.1819,2.1889,2.1955,2.1982,2.2035,2.2072,2.2095,2.2155,2.2179,2.223,2.2291,2.2359,2.2402,2.2467,2.2558,2.2579,2.2597,2.2603,2.2607,2.2616,2.2673,2.2683,2.2571,2.2571,2.2571,0,0,2.1775,2.1827,2.1861,2.1953,2.1999,2.2062,2.2054,2.2119,2.2168,2.219,2.2275,2.2315,2.2386,2.2477,2.2519,2.2511,2.2651,2.2614,2.2616,2.2623,2.2679,2.269,2.2699,2.2575,2.2574,2.2574,0,0,2.1833,2.1875,2.1938,2.1984,2.2054,2.209,2.2105,2.2178,2.2206,2.2291,2.2311,2.2371,2.2484,2.2536,2.2577,2.2661,2.2674,2.2681,2.2711,2.2766,2.2775,2.2783,2.2818,2.2829,2.2689,2.2689,2.2689,0,2.1841,2.1933,2.1968,2.2035,2.2077,2.21,2.2166,2.2211,2.2299,2.233,2.2319,2.2466,2.2515,2.2621,2.2642,2.2673,2.2696,2.2672,2.277,2.2779,2.2787,2.2821,2.2833,2.269,2.269,2.2689,2.2689,0,2.1943,2.2008,2.205,2.2135,2.2182,2.2248,2.2297,2.2342,2.2362,2.24,2.2491,2.2551,2.2632,2.2658,2.2678,2.2769,2.2763,2.2761,2.2742,2.2798,2.283,2.2843,2.2691,2.269,2.269,2.269,0,0,2.1993,2.2099,2.2114,2.2156,2.2237,2.2289,2.2359,2.2436,2.2476,2.2538,2.2601,2.2699,2.2699,2.2746,2.2773,2.2821,2.289,2.2814,2.2817,2.283,2.3001,2.3003,2.3017,2.2899,2.2901,2.2903,2.2996,0,2.2062,2.2184,2.2221,2.2325,2.2389,2.2414,2.2476,2.2535,2.2574,2.2636,2.268,2.2751,2.2743,2.2773,2.2821,2.2871,2.2926,2.2865,2.2962,2.2965,2.2946,2.3033,2.3036,2.312,2.3008,2.301,2.3012,0,2.2159,2.2223,2.2333,2.2412,2.244,2.2494,2.2572,2.2629,2.2699,2.2725,2.278,2.2804,2.2883,2.286,2.2972,2.293,2.2973,2.3004,2.3009,2.3021,2.2993,2.3052,2.3147,2.3161,2.3031,2.303,2.3028,0,2.2189,2.2303,2.2385,2.2419,2.2511,2.255,2.2591,2.2659,2.2705,2.2774,2.2806,2.2884,2.2927,2.2989,2.3036,2.3013,2.3147,2.3125,2.3174,2.3173,2.3202,2.32,2.3309,2.3225,2.3224,2.3224,2.3224,0,2.2264,2.2332,2.24,2.2451,2.253,2.2574,2.2652,2.2694,2.2756,2.2819,2.2846,2.2905,2.2962,2.3031,2.3068,2.3159,2.3177,2.3204,2.3213,2.3203,2.32,2.3233,2.323,2.3227,2.3227,2.3226,2.3225,0,2.2311,2.2359,2.2451,2.2532,2.2555,2.261,2.2681,2.2734,2.2776,2.2856,2.2877,2.2944,2.3026,2.3079,2.3183,2.3209,2.3311,2.3316,2.3286,2.3291,2.3339,2.3335,2.3475,2.3498,2.3395,2.3395,2.3396,0,2.2357,2.241,2.2498,2.2541,2.2583,2.2652,2.27,2.2747,2.2797,2.2885,2.2929,2.3013,2.3083,2.3215,2.3275,2.3357,2.3368,2.3411,2.338,2.337,2.3374,2.3371,2.3379,2.3417,2.3417,2.3418,2.3419,0,2.2435,2.2458,2.2524,2.2602,2.2659,2.2722,2.2786,2.2821,2.288,2.2936,2.3021,2.3075,2.3184,2.3269,2.3358,2.3405,2.3424,2.3428,2.3445,2.3435,2.3417,2.3432,2.3304,2.3425,2.3424,2.3424,2.3423,2.3423,2.2486,2.2536,2.2607,2.2683,2.2736,2.2797,2.2852,2.2902,2.2972,2.3063,2.3088,2.3178,2.3253,2.3374,2.3423,2.3497,2.3492,2.3514,2.3521,2.3526,2.3529,2.3404,2.3513,2.3513,2.3513,2.3513,2.3513,0,2.2569,2.2617,2.2686,2.2775,2.2837,2.2847,2.292,2.2972,2.305,2.3117,2.3187,2.3287,2.3372,2.344,2.3528,2.3575,2.3586,2.3597,2.3595,2.3607,2.3527,2.3506,2.3586,2.3586,2.3586,2.3586,2.3586,2.3586,2.2619,2.2707,2.2739,2.2856,2.2904,2.2991,2.3033,2.3091,2.3146,2.3256,2.3326,2.3369,2.3439,2.3534,2.3614,2.3632,2.3665,2.3675,2.3695,2.362,2.3612,2.3604,2.3585,2.3681,2.3681,2.377,2.3771,2.3771]},{"header":{"parameterUnit":"m.s-1","parameterCategory":1,"la1":30.2991,"la2":30.254,"lo1":-89.0895,"lo2":-89.0444,"dy":0.0017,"dx":0.0017,"nx":28,"ny":28,"refTime":"2025-06-08T21:00:00:Z","depth":0,"parameterNumber":3,"parameterNumberName":"V-component_of_WINDS"},"data":[0,0,0,0,0,0,0,0,0,0,0,0,0,0,0,0,0,0,0,0,0,0,0,0,0,0,0,0,0,0,0,0,0,0,0,0,0,0,0,0,0,0,0,0,0,0,0,0,0,0,0,0,0,0,0,0,0,0,5.729,5.7292,0,5.7509,5.7512,5.7514,5.755,5.7548,5.7546,5.7544,5.7761,5.7768,5.7775,0,0,0,0,0,0,0,0,0,0,0,0,0,5.6894,5.6901,5.7289,5.7292,5.7295,5.7509,5.7512,5.7515,5.755,5.7548,5.7545,5.7543,5.7758,5.7767,5.7776,0,0,0,0,0,0,0,0,0,0,0,0,0,5.7085,5.6904,5.7289,5.7339,5.7345,5.7508,5.7512,5.7516,5.7551,5.7548,5.7545,5.7542,5.7755,5.7766,5.7777,5.7904,0,0,5.7812,5.7817,0,0,0,0,0,0,0,0,5.7074,5.7099,5.7329,5.7336,5.7343,5.75,5.7452,5.7646,5.7551,5.7472,5.7544,5.7541,5.7675,5.7693,5.774,5.7914,5.7923,5.7813,5.782,5.7824,5.7828,0,0,0,0,0,0,0,5.7061,5.709,5.7376,5.7332,5.7341,5.7348,5.7372,5.7489,5.7587,5.7479,5.7482,5.7508,5.7679,5.7729,5.7746,5.7926,5.7812,5.7822,5.7829,5.7834,5.8218,5.8221,0,0,0,0,0,0,5.704,5.7079,5.7369,5.7383,5.7199,5.7357,5.7384,5.7452,5.7586,5.7604,5.751,5.7509,5.7711,5.7732,5.7753,5.7914,5.7824,5.7835,5.7841,5.8215,5.8219,5.8223,0,0,0,0,0,0,5.7031,5.7065,5.736,5.7232,5.727,5.7367,5.7443,5.7458,5.7509,5.761,5.7626,5.7545,5.771,5.7737,5.7868,5.7921,5.784,5.785,5.8211,5.8216,5.8221,5.8232,0,0,0,0,0,0,5.702,5.7062,5.7112,5.7233,5.7277,5.7473,5.7446,5.7464,5.7529,5.7529,5.7646,5.7662,5.771,5.7851,5.7879,5.7935,5.7859,5.8206,5.8213,5.8219,5.8228,5.8237,5.8246,0,0,0,0,0,5.7005,5.7104,5.7115,5.715,5.7342,5.7476,5.7501,5.7556,5.7533,5.7584,5.7649,5.7659,5.791,5.7864,5.7896,5.7956,5.8203,5.8211,5.8219,5.8224,5.8236,5.8245,0,0,0,0,0,0,5.6983,5.7121,5.7134,5.7275,5.7364,5.7482,5.7548,5.7566,5.7661,5.7657,5.7718,5.7744,5.7872,5.7926,5.7872,5.8087,5.8055,5.8069,5.8048,5.806,5.8068,5.8053,5.7868,0,0,0,0,0,5.6995,5.7095,5.7208,5.7322,5.7366,5.7449,5.7509,5.7545,5.7638,5.7675,5.7749,5.7838,5.7937,5.8001,5.8097,5.8235,5.8262,5.8293,5.8302,5.8309,5.8321,5.8401,5.8417,5.8248,5.8248,5.8248,0,0,5.702,5.7108,5.7166,5.732,5.7393,5.7494,5.748,5.7586,5.7661,5.769,5.782,5.7877,5.7979,5.8115,5.8178,5.8165,5.8374,5.8319,5.8323,5.8332,5.8411,5.8426,5.8441,5.8253,5.8252,5.8252,0,0,5.7118,5.7193,5.7299,5.7373,5.7486,5.7541,5.7566,5.7682,5.7723,5.7854,5.7879,5.7967,5.8136,5.821,5.8269,5.8398,5.8411,5.8427,5.8474,5.8552,5.8565,5.8577,5.8626,5.8642,5.8439,5.8439,5.8439,0,5.7134,5.7289,5.7349,5.7457,5.7524,5.7558,5.7665,5.7733,5.7869,5.7915,5.7898,5.8114,5.8184,5.834,5.8372,5.8417,5.8448,5.8415,5.8559,5.8571,5.8584,5.8631,5.8649,5.844,5.844,5.844,5.844,0,5.7305,5.7412,5.7483,5.762,5.7695,5.78,5.7875,5.7943,5.7972,5.8029,5.8163,5.825,5.8366,5.8405,5.8432,5.8565,5.8553,5.8547,5.8515,5.86,5.8646,5.8664,5.8442,5.8442,5.8441,5.8441,0,0,5.7394,5.7566,5.7591,5.7655,5.7783,5.7866,5.7973,5.8091,5.815,5.8242,5.8335,5.8478,5.8475,5.8542,5.8578,5.8645,5.8746,5.8631,5.8634,5.8652,5.89,5.8906,5.8926,5.8754,5.8758,5.8761,5.8892,0,5.7509,5.7706,5.7765,5.7929,5.803,5.8065,5.8159,5.8247,5.8303,5.8395,5.8455,5.8558,5.8543,5.8585,5.8653,5.8719,5.8797,5.871,5.8841,5.8845,5.8817,5.8949,5.8956,5.9075,5.891,5.8913,5.8915,0,5.7669,5.7771,5.7948,5.8067,5.8111,5.8195,5.8309,5.8397,5.8497,5.8533,5.861,5.8641,5.8754,5.8715,5.8872,5.8812,5.8868,5.8909,5.8915,5.8931,5.8887,5.8971,5.9115,5.9134,5.8943,5.8941,5.8939,0,5.7721,5.7901,5.8031,5.8084,5.8225,5.8284,5.8345,5.8443,5.8511,5.8609,5.8655,5.8763,5.8823,5.8906,5.8965,5.8931,5.9118,5.9083,5.9151,5.915,5.919,5.9187,5.9347,5.9222,5.9221,5.9221,5.9221,0,5.7845,5.7952,5.8057,5.8137,5.8258,5.8323,5.8441,5.8503,5.859,5.8682,5.8716,5.8801,5.8874,5.8968,5.9014,5.9138,5.9164,5.9196,5.9207,5.9195,5.9191,5.9234,5.9228,5.9226,5.9225,5.9224,5.9223,0,5.7923,5.7998,5.8142,5.8266,5.8299,5.8383,5.8488,5.8567,5.8624,5.874,5.8771,5.8861,5.8975,5.9042,5.9183,5.9214,5.9353,5.9359,5.932,5.9326,5.9391,5.9385,5.9586,5.9617,5.9469,5.947,5.9471,0,5.7998,5.8083,5.8217,5.8283,5.8346,5.8451,5.8522,5.8589,5.8662,5.8785,5.8848,5.8965,5.9062,5.924,5.9317,5.9426,5.9437,5.95,5.9453,5.9439,5.9441,5.9437,5.9447,5.9508,5.9509,5.951,5.9511,0,5.8125,5.8159,5.8263,5.838,5.8466,5.856,5.8654,5.8705,5.8788,5.8867,5.8986,5.9061,5.9209,5.9324,5.944,5.95,5.952,5.9525,5.9547,5.9536,5.9512,5.9529,5.9345,5.9521,5.952,5.9519,5.9519,5.9518,5.8207,5.8285,5.8393,5.8508,5.8587,5.8674,5.8756,5.8826,5.8927,5.9056,5.9088,5.9213,5.9312,5.9471,5.9535,5.9632,5.9622,5.9652,5.9661,5.9668,5.9672,5.9495,5.9653,5.9652,5.9652,5.9652,5.9652,0,5.8338,5.8411,5.8516,5.8649,5.874,5.8754,5.8859,5.8933,5.9044,5.9137,5.9233,5.937,5.9483,5.957,5.9685,5.9747,5.9759,5.9775,5.9772,5.9786,5.9673,5.9644,5.9764,5.9764,5.9763,5.9763,5.9763,5.9763,5.8418,5.8552,5.8599,5.8773,5.8843,5.897,5.9029,5.911,5.9186,5.9339,5.9435,5.9492,5.9583,5.9706,5.981,5.9832,5.9874,5.9889,5.9913,5.9806,5.9794,5.9782,5.9756,5.9897,5.9897,6.0019,6.002,6.0021]}]]